Helicity
41 55 58 86 76 56 43 37 41 35 26 23 19 12 8 -1 -5 4 14 24 29 38 45 43 27 21 17 24 30 30 39 46 54 50 45 57 72 85 81 59 76 57 49
77 43 71 98 87 72 56 46 38 38 40 38 31 26 19 14 9 7 9 16 20 24 30 27 22 20 25 30 26 23 28 34 35 21 38 51 61 56 53 33 45 49 49
75 46 59 71 71 68 61 53 45 39 41 46 46 42 33 26 19 15 12 14 15 15 17 14 20 30 28 22 25 21 19 23 27 4 24 35 32 39 26 34 63 50 56
22 44 35 52 62 66 62 57 52 49 51 55 57 51 41 35 28 23 17 19 14 11 18 16 16 23 26 25 20 15 17 20 18 -7 -14 10 15 45 61 58 60 61 62
-4 24 27 52 60 65 68 64 60 54 54 59 66 68 57 50 44 38 30 24 23 17 15 17 20 30 23 26 24 13 10 25 25 -8 11 -7 28 65 62 43 56 65 62
38 61 47 56 58 61 67 69 64 64 62 57 60 72 75 68 62 60 51 41 31 19 26 28 24 24 24 20 24 18 9 25 19 13 -2 24 45 44 61 51 50 60 46
20 19 40 54 61 62 62 60 59 58 56 61 60 67 69 71 74 75 69 64 53 41 16 26 44 34 27 23 15 10 11 26 7 40 -2 37 5 60 40 39 50 63 62
19 10 10 56 72 70 63 59 60 54 55 49 46 49 58 67 74 76 79 79 68 57 46 26 38 46 44 33 22 13 7 25 6 39 14 -27 -22 48 47 43 51 63 69
30 54 26 22 42 61 62 68 66 56 53 48 46 38 34 45 57 72 80 83 73 69 62 53 44 48 43 47 40 20 8 13 13 35 16 32 -34 58 85 78 62 61 56
302 302 297 194 153 111 49 50 62 62 55 48 47 48 48 37 49 54 65 72 73 68 75 73 67 61 64 54 41 40 23 9 10 30 33 20 79 54 76 85 93 77 69
341 336 285 232 201 199 123 83 60 38 48 44 51 52 57 64 49 46 62 73 74 70 67 76 80 87 86 80 65 51 42 49 27 23 57 38 57 73 99 97 90 92 80
322 281 257 249 215 206 235 248 190 98 125 118 93 80 87 84 84 63 57 58 79 86 96 86 99 107 121 142 129 86 102 76 54 23 70 59 88 90 109 115 90 97 87
147 163 179 197 241 203 209 207 284 295 174 169 182 202 178 141 149 118 73 53 64 68 95 91 66 107 148 170 156 139 120 110 90 42 45 91 148 102 109 114 79 95 89
115 148 141 180 236 260 148 142 175 268 227 189 151 183 187 155 133 103 91 102 83 72 69 75 89 102 128 144 132 135 75 86 107 91 83 106 112 115 121 113 76 98 101
96 115 141 150 208 233 184 131 162 168 235 200 227 225 177 146 116 80 64 59 81 99 58 51 38 39 75 97 176 299 295 151 51 85 97 117 141 106 98 127 103 122 120
91 120 141 183 223 217 209 136 116 124 119 161 214 210 177 163 131 112 111 121 95 110 81 62 63 36 40 83 96 -27 49 192 81 30 57 123 108 97 108 105 112 122 129
89 119 179 210 239 241 241 183 163 143 132 158 158 181 164 151 142 157 196 141 132 135 156 113 130 119 97 55 12 -25 -24 146 22 -34 29 99 112 47 51 93 104 124 126
146 122 141 184 247 256 287 217 150 142 83 99 97 109 144 155 177 181 164 175 181 172 182 195 160 130 118 94 96 24 37 26 100 -23 -45 40 77 74 -43 23 64 103 109
179 133 139 164 205 211 229 224 211 176 76 40 34 77 109 137 178 155 171 193 184 157 170 174 171 152 155 126 96 71 28 39 -13 -89 -16 34 15 92 87 68 72 75 108
187 117 100 128 169 183 164 176 206 178 158 103 32 64 59 79 133 102 136 139 133 153 180 189 172 185 153 175 127 71 54 49 59 70 50 84 87 102 110 136 154 141 122
199 120 95 96 123 131 132 143 161 144 124 152 65 102 99 74 111 98 97 115 147 160 169 177 145 169 154 174 112 142 84 50 68 76 81 92 102 111 118 127 178 195 183
198 143 103 71 90 110 79 79 74 90 72 81 68 101 94 112 119 107 111 102 124 134 176 210 187 134 117 201 142 99 120 147 136 87 116 115 121 136 139 141 136 134 146
176 128 116 107 101 113 106 85 88 81 65 54 56 59 90 102 72 82 74 56 68 84 105 139 174 195 150 139 221 145 158 151 110 109 145 129 129 132 123 122 135 123 113
159 148 134 123 122 101 100 81 77 48 30 17 10 17 50 90 67 51 36 38 58 71 124 149 170 171 214 210 211 274 228 178 170 106 108 161 112 100 84 92 91 88 97
171 164 138 138 124 105 102 86 50 34 10 -7 -1 20 31 37 55 60 59 68 80 65 68 80 123 156 166 202 244 220 247 235 185 214 170 83 78 129 133 91 75 77 96
180 191 166 164 150 124 104 93 69 46 13 -10 -21 -30 -26 -15 6 29 34 42 53 68 86 80 84 99 94 118 155 222 262 289 351 348 275 137 77 -38 47 124 79 56 56
Wind_Speed
15 17 21 25 28 29 29 29 28 28 28 28 30 33 34 34 35 35 34 32 31 30 30 29 28 27 25 26 28 29 31 33 33 33 32 33 34 35 37 38 39 40 42
17 16 21 24 26 27 27 27 26 25 25 25 26 28 31 32 32 32 31 30 29 28 27 26 26 25 25 26 27 30 31 32 32 30 30 31 31 32 32 34 35 37 39
22 19 22 24 26 26 26 25 24 23 23 22 22 23 26 27 28 28 27 27 27 26 25 24 24 24 24 25 26 28 29 30 29 27 29 28 28 29 29 29 33 34 36
25 19 20 23 24 25 25 24 23 21 20 20 20 20 21 21 22 22 22 23 22 22 21 22 22 22 22 22 24 25 26 27 26 25 26 26 26 25 27 29 30 32 33
25 24 21 21 22 24 24 23 21 19 18 17 17 16 16 17 16 16 17 17 17 18 18 18 19 19 19 20 22 23 24 25 24 21 21 20 21 20 22 25 26 28 30
26 25 23 20 22 23 24 24 22 20 18 17 15 14 12 12 12 11 10 11 11 12 13 13 13 14 15 17 19 19 21 23 22 20 18 13 15 21 22 22 24 25 27
26 27 24 22 22 23 23 23 24 23 22 19 17 15 14 12 10 8 6 6 5 6 6 6 7 8 9 11 15 18 19 21 19 21 21 13 20 16 19 19 21 23 24
26 28 28 26 26 26 26 26 25 26 27 26 25 22 19 16 13 10 9 8 5 6 5 6 6 7 5 7 13 14 17 19 19 21 17 9 9 14 16 15 16 20 21
29 32 31 30 30 28 28 28 28 30 32 33 33 32 29 25 21 17 15 13 12 11 11 11 11 11 12 11 9 11 14 13 12 13 12 8 15 13 15 14 14 16 20
37 40 42 43 45 42 32 28 27 30 34 35 35 33 32 33 28 25 24 25 22 20 21 22 20 21 20 20 19 18 15 15 16 13 9 6 11 7 9 11 16 16 17
42 45 47 47 48 49 50 38 30 31 31 32 37 33 31 34 38 38 31 27 29 32 34 34 33 31 28 29 27 26 25 30 27 23 8 3 11 12 10 11 13 11 11
46 50 51 52 53 53 50 52 43 38 34 37 50 43 27 31 37 40 41 36 32 34 35 34 36 38 41 39 40 37 33 31 29 31 30 6 11 14 10 9 8 8 8
46 51 56 57 56 56 52 49 49 48 36 43 39 44 39 42 47 50 53 50 42 38 40 39 41 50 53 46 47 46 46 42 38 34 34 11 17 14 10 9 8 4 5
50 55 58 60 59 59 53 47 45 43 38 41 43 45 47 48 52 54 55 55 56 53 49 52 49 47 47 50 53 56 65 67 56 48 37 15 25 15 10 9 7 7 7
50 55 57 60 59 58 55 50 45 43 43 43 46 50 51 54 56 58 57 57 57 57 58 63 66 69 60 62 56 46 58 79 77 64 49 22 21 21 17 11 12 12 11
50 55 57 59 60 57 56 53 49 46 44 43 47 50 53 56 58 59 59 60 58 58 58 63 66 62 57 56 57 58 62 69 68 70 62 28 18 22 14 11 9 16 18
49 53 57 58 59 56 56 51 50 48 44 45 48 52 53 55 59 61 61 58 62 62 64 61 59 59 59 58 60 58 31 25 23 48 61 44 29 26 25 16 15 14 18
48 51 53 54 57 56 54 49 49 48 46 48 51 52 55 57 60 60 61 63 65 64 63 64 65 63 63 61 60 41 29 33 36 39 50 32 19 23 38 24 20 21 20
46 49 51 52 52 53 53 52 51 48 44 48 48 53 56 58 60 59 61 63 63 63 65 67 67 65 64 62 59 54 49 42 36 41 50 49 39 40 35 34 30 29 28
43 44 46 49 51 50 50 50 50 50 47 50 49 55 57 58 61 60 61 61 63 65 67 69 70 67 63 65 64 61 54 46 41 43 50 59 56 63 64 62 57 44 35
41 44 47 50 51 50 50 51 51 52 51 54 52 59 61 61 63 63 61 63 65 66 68 70 70 69 65 65 59 61 60 56 53 52 55 58 66 71 70 73 69 62 59
40 42 45 48 50 51 49 48 46 47 51 54 56 61 61 63 62 62 65 67 67 68 70 72 72 72 66 68 64 64 68 59 56 56 52 54 61 67 70 73 74 70 64
39 40 42 43 46 49 49 48 48 48 51 56 61 61 64 63 62 65 68 69 71 69 71 71 73 73 74 68 69 61 68 71 70 60 57 58 61 65 71 74 75 78 78
35 37 38 40 43 46 48 49 50 53 55 58 61 63 64 65 66 69 70 71 70 68 70 71 72 73 75 78 68 62 62 63 73 85 66 68 76 75 73 78 80 82 80
29 33 33 36 40 43 47 49 51 53 55 58 62 64 66 67 68 71 72 72 70 69 70 70 71 72 72 77 76 74 74 76 70 78 98 83 80 80 82 78 82 82 84
26 28 28 32 37 42 45 49 51 55 57 61 65 67 68 69 70 72 72 71 71 71 71 71 70 70 71 73 76 78 77 72 75 76 85 98 99 89 83 86 86 84 80
Wind_Direction
44 58 54 51 54 56 56 53 52 55 49 44 38 34 34 31 32 39 44 48 50 52 54 55 51 49 42 35 30 23 17 17 25 34 43 53 58 64 73 72 72 78 80
59 51 48 45 50 52 52 51 46 46 47 42 38 35 34 35 38 41 43 46 46 45 46 42 37 37 36 36 28 18 22 25 26 36 48 57 60 68 71 72 75 81 82
67 60 50 46 47 45 44 48 51 46 42 38 35 35 35 40 43 46 46 48 50 48 42 35 30 29 29 32 29 25 23 24 27 43 56 59 63 69 68 68 80 82 83
58 63 53 47 42 38 39 41 51 53 48 44 37 31 30 36 40 44 46 47 48 48 41 32 27 24 26 29 26 22 23 21 28 49 60 60 70 66 64 75 81 85 87
38 52 53 44 32 26 27 28 39 43 41 37 32 32 29 28 31 36 44 48 49 43 42 38 29 26 22 22 20 19 14 9 18 39 47 82 69 67 68 79 81 84 91
23 29 29 25 19 15 13 15 18 19 17 15 16 13 22 23 22 26 37 39 42 41 43 40 36 32 26 20 14 19 12 5 11 11 36 78 77 96 90 87 87 88 95
14 16 14 17 14 10 7 7 3 359 356 356 356 355 352 353 359 360 5 10 26 25 44 52 34 27 26 21 14 9 4 1 9 360 1 59 109 94 98 95 96 101 100
8 5 12 9 4 359 357 353 351 347 345 344 343 341 338 336 337 335 327 323 317 320 325 336 347 350 360 1 356 360 357 354 354 352 6 40 52 111 101 103 95 109 111
350 350 359 7 6 360 351 345 344 343 339 335 332 330 330 329 325 323 318 311 301 295 296 301 300 307 314 321 332 340 342 350 353 357 10 109 144 124 107 115 110 113 124
350 348 342 341 334 333 349 348 347 341 334 331 328 328 329 325 323 319 315 310 304 298 296 297 295 298 301 304 308 314 319 324 326 331 342 28 138 140 110 119 130 128 130
339 337 335 333 334 338 333 335 343 340 338 333 327 328 328 325 320 318 318 313 305 300 297 296 294 293 293 295 297 300 305 307 309 309 307 230 172 158 139 137 138 136 138
333 332 329 326 326 328 332 336 333 330 333 336 320 323 336 332 327 322 319 317 311 303 294 289 288 289 291 292 293 292 293 295 298 300 299 240 205 185 172 158 154 150 158
334 331 327 324 322 326 330 337 338 335 330 323 332 320 330 328 328 323 319 319 318 313 304 302 298 296 288 288 288 289 289 288 289 290 295 227 200 206 183 189 177 197 198
329 328 328 329 327 324 331 335 338 337 340 334 335 334 327 325 323 322 323 324 321 316 310 306 302 298 294 287 283 287 288 282 281 285 285 244 183 199 232 206 213 248 243
333 333 333 332 330 330 330 333 334 336 332 332 332 330 328 323 319 319 320 322 321 320 318 312 310 305 300 300 301 287 304 280 273 277 278 262 205 189 185 202 264 264 259
334 332 332 332 332 331 331 333 334 333 331 331 333 331 328 324 321 318 319 320 322 322 320 315 311 312 312 309 307 325 318 279 278 274 269 275 223 202 217 252 219 271 266
338 336 334 333 333 334 333 336 337 336 337 335 333 332 331 329 324 319 318 321 320 320 318 317 318 317 314 312 315 322 309 272 244 269 286 282 272 216 212 239 221 227 247
344 343 341 339 337 337 339 341 339 339 339 338 337 336 333 331 327 322 319 319 318 317 318 317 316 315 313 313 314 322 315 305 296 272 285 286 277 271 218 234 252 253 234
345 344 344 344 343 340 338 339 338 340 341 340 340 338 335 332 328 326 322 321 322 319 317 316 313 316 313 312 311 311 315 311 298 278 281 288 284 280 276 274 255 255 261
350 350 349 349 346 344 343 340 338 339 342 341 340 337 334 333 329 328 325 324 323 320 318 316 310 312 313 313 308 305 307 304 296 286 283 284 286 284 282 284 285 283 259
352 349 348 346 345 344 340 337 335 334 336 337 339 336 334 332 329 327 327 326 324 320 317 315 312 312 311 316 311 308 303 299 294 291 289 286 283 282 285 284 284 285 284
345 347 347 348 349 349 348 344 342 340 339 338 338 336 336 333 332 330 326 323 322 319 317 315 313 309 308 314 308 306 299 301 299 296 293 290 287 285 285 284 283 283 281
340 344 349 351 353 353 353 352 348 344 342 340 337 337 335 337 336 333 329 326 322 320 316 315 313 310 305 306 308 304 299 294 299 298 295 294 293 290 287 285 283 281 279
341 346 351 353 354 354 354 353 350 345 341 340 338 337 336 336 335 333 330 328 325 322 319 315 313 310 307 302 306 302 303 300 294 290 293 292 292 291 290 286 283 280 281
347 347 356 359 358 357 354 352 349 346 344 342 340 339 338 337 335 334 331 329 326 323 321 318 315 311 308 303 300 299 297 296 293 290 287 289 290 289 289 289 285 281 278
351 354 2 0 357 354 353 351 348 345 343 341 340 340 339 338 336 335 333 330 327 323 319 317 317 314 310 305 301 297 295 293 292 291 288 286 286 287 287 285 282 281 281